Home   Weather   Deggendorf   Past weeks
Flag for Germany

Past Weather in Deggendorf, Bavaria, Germany — Yesterday and Last 2 Weeks

Now
56 °F

Overcast.


Feels Like: 56 °F
Forecast: 63 / 47 °F
Wind: 2 mph from East

Location: Straubing

Current Time: Oct 17, 2019 at 12:39:07 pm

Latest Report: Oct 17, 2019 at 12:00 pm


Visibility: 19 mi

Pressure: 30.06 "Hg

Humidity: 78%

Dew Point: 49 °F

Location of DeggendorfLocation

Past Weather in Deggendorf — Graph

°F

Deggendorf Temperature Yesterday

Maximum temperature yesterday: 61 °F (at 4:00 pm)
Minimum temperature yesterday: 45 °F (at 9:00 pm)
Average temperature yesterday: 54 °F

High & Low Weather Summary for the Past Weeks

 TemperatureHumidityPressure
High71 °F (Oct 13, 4:00 pm)100% (Oct 4, 7:00 am)30.23 "Hg (Oct 4, 7:00 am)
Low38 °F (Oct 17, 6:00 am)48% (Oct 16, 4:00 pm)29.68 "Hg (Oct 2, 10:00 am)
Average51 °F88%30.00 "Hg
* Reported Oct 2 10:00 am — Oct 17 10:00 am, Deggendorf. Weather by CustomWeather, © 2019

Note: Actual official high and low records may vary slightly from our data, if they occured in-between our weather recording intervals... More about our weather records

Advertising

Deggendorf Weather History for the Previous 24 Hours

Scroll right to see more
 ConditionsComfort  
Time TempWeatherWind HumidityBarometerVisibility
10:00 am
Thu, Oct 17
49 °FPartly sunny.2 mph86%30.08 "Hg4 mi
9:00 am43 °FOvercast.1 mph96%30.09 "Hg19 mi
7:00 am39 °FOvercast.1 mph99%30.06 "Hg13 mi
6:00 am38 °FOvercast.2 mph99%30.08 "Hg10 mi
4:00 am43 °FOvercast.2 mph97%30.06 "Hg22 mi
3:00 am44 °FPassing clouds.3 mph92%30.05 "Hg22 mi
1:00 am46 °FClear.3 mph91%30.04 "Hg17 mi
12:00 am44 °FClear.3 mph93%30.05 "Hg25 mi
10:00 pm
Wed, Oct 16
46 °FClear.2 mph90%30.05 "Hg28 mi
9:00 pm45 °FClear.2 mph95%30.04 "Hg25 mi
7:00 pm53 °FClear.1 mph78%30.02 "Hg37 mi
6:00 pm58 °FSunny.2 mph58%30.01 "Hg37 mi
4:00 pm61 °FScattered clouds.3 mph48%30.01 "Hg47 mi
3:00 pm61 °FPartly sunny.6 mph49%30.01 "Hg47 mi
1:00 pm59 °FSunny.5 mph64%30.03 "Hg37 mi
12:00 pm57 °FPassing clouds.6 mph67%30.04 "Hg37 mi
Weather by CustomWeather, © 2019

See weather overview